This is the latest recevied weather packets stored in our database for station/object KY4LEX. If no packets are shown the sender has not sent any weather packets the latest 10 day(s).
| Time | Temp. | Humidity | Pressure | Rain* | Wind** | Luminosity | Snow |
|---|---|---|---|---|---|---|---|
| 1777999405 | 21.67° C | 54% | 1016.7 hPa | 0 mm | - | 298 W/m² | - |
| 1777999104 | 21.67° C | 54% | 1016.8 hPa | 0 mm | - | 280 W/m² | - |
| 1777998802 | 21.11° C | 54% | 1016.7 hPa | 0 mm | - | 313 W/m² | - |
| 1777998500 | 21.11° C | 55% | 1016.7 hPa | 0 mm | - | 270 W/m² | - |
| 1777998196 | 21.11° C | 55% | 1016.9 hPa | 0 mm | - | 247 W/m² | - |
| 1777997893 | 21.11° C | 55% | 1016.9 hPa | 0 mm | - | 233 W/m² | - |
| 1777997590 | 21.11° C | 56% | 1017 hPa | 0 mm | - | 223 W/m² | - |
| 1777997288 | 21.67° C | 55% | 1016.9 hPa | 0 mm | - | 238 W/m² | - |
| 1777996986 | 21.67° C | 55% | 1016.7 hPa | 0 mm | - | 259 W/m² | - |
| 1777996682 | 21.67° C | 55% | 1017.1 hPa | 0 mm | - | 280 W/m² | - |
| 1777996377 | 21.67° C | 55% | 1016.9 hPa | 0 mm | - | 311 W/m² | - |
| 1777996074 | 21.67° C | 55% | 1017 hPa | 0 mm | - | 327 W/m² | - |
| 1777995771 | 21.11° C | 58% | 1016.7 hPa | 0 mm | - | 330 W/m² | - |
| 1777995467 | 21.11° C | 57% | 1016.6 hPa | 0 mm | - | 353 W/m² | - |
| 1777995164 | 20.56° C | 58% | 1016.5 hPa | 0 mm | - | 352 W/m² | - |
| 1777994862 | 20.56° C | 58% | 1016.7 hPa | 0 mm | - | 313 W/m² | - |
| 1777994558 | 20.56° C | 57% | 1016.6 hPa | 0 mm | - | 304 W/m² | - |
| 1777994258 | 20.56° C | 60% | 1016.6 hPa | 0 mm | - | 294 W/m² | - |
| 1777993956 | 20.56° C | 58% | 1016.7 hPa | 0 mm | - | 284 W/m² | - |
| 1777993653 | 20° C | 58% | 1016.7 hPa | 0 mm | - | 278 W/m² | - |
| 1777993350 | 20° C | 64% | 1016.7 hPa | 0 mm | - | 253 W/m² | - |
| 1777993050 | 20° C | 59% | 1016.6 hPa | 0 mm | - | 230 W/m² | - |
| 1777992748 | 20° C | 59% | 1016.4 hPa | 0 mm | - | 217 W/m² | - |
| 1777992446 | 20° C | 59% | 1016.2 hPa | 0 mm | - | 211 W/m² | - |
| 1777992144 | 19.44° C | 59% | 1016.7 hPa | 0 mm | - | 207 W/m² | - |
* Rain latest hour (hover to see other rain measurements)
** Current wind speed in m/s (hover to see current wind gust speed)